Simultaneous Nadir Overpasses (SNOs) Predictions

Prediction of SNOs between GOES-16 and NPP Satellite Orbit:

Table of predicted SNOs for the next 14.0 days since TLE Epoch: 6/4/2022
Index Date Time (GOES-16) GOES-16 Lat,Lon NPP Lat,Lon Distance(km) Time Diff (sec)
1 06/05/2022 18:28:53 0.00, -75.20 -0.09, -75.56 41.36 80
2 06/06/2022 18:07:30 0.00, -75.20 0.92, -71.03 474.99 80
3 06/08/2022 06:32:00 0.00, -75.21 0.23, -76.31 125.45 80
4 06/09/2022 06:10:37 -0.00, -75.22 -0.77, -71.79 391.16 80
5 06/10/2022 18:35:15 -0.00, -75.23 -0.41, -77.10 212.36 80
6 06/11/2022 18:13:52 0.00, -75.24 0.60, -72.57 304.42 80
7 06/13/2022 06:38:21 -0.00, -75.25 0.60, -77.84 295.62 80
8 06/14/2022 06:16:58 -0.01, -75.26 -0.46, -73.33 221.08 80
9 06/15/2022 18:38:56 0.01, -75.28 -0.77, -78.63 382.49 80
10 06/16/2022 18:22:53 0.01, -75.29 0.30, -74.11 134.66 80
